Theta_e
296 290 288 292 292 293 291 289 288 291 295 292 291 291 293 294 292 291 291 292 292 292 292 294 297 297 298 300 302 303 302 302 303 302 300 298 295 294 294 294 294 295 296 296
292 289 295 296 295 293 292 289 289 292 294 292 291 291 293 294 294 294 294 294 293 290 290 293 295 296 297 299 303 304 304 304 304 302 298 295 293 291 290 290 290 291 291 291
290 294 298 296 293 292 291 290 289 290 291 290 288 288 290 294 295 294 296 296 294 291 290 291 294 294 295 297 303 304 304 303 298 296 294 292 291 289 288 288 288 289 290 289
292 296 295 293 292 293 289 293 293 292 288 284 288 283 288 291 292 292 295 293 292 290 291 292 294 293 294 297 301 301 300 297 296 296 293 292 289 286 285 286 286 287 288 287
291 292 292 292 292 295 291 294 292 290 286 284 285 283 286 292 292 295 293 291 291 291 291 292 293 294 295 297 297 297 297 297 295 295 292 289 287 286 286 285 285 285 285 286
292 294 294 294 293 295 294 292 290 288 286 280 285 285 286 290 293 296 292 290 290 290 290 292 292 291 292 294 294 294 294 293 293 290 289 288 286 285 285 284 284 283 284 283
291 291 293 294 290 292 293 289 281 279 278 280 286 284 289 292 293 295 293 291 289 290 290 290 288 288 288 291 291 291 291 290 289 288 287 287 286 286 285 284 283 282 282 281
285 284 291 294 292 289 288 288 282 275 277 279 283 281 287 293 292 291 293 293 290 289 290 288 287 287 287 287 287 287 287 287 288 288 287 287 286 286 285 284 283 282 282 281
286 286 291 292 293 294 287 285 291 285 274 275 283 286 291 290 290 289 290 290 289 289 287 286 286 286 286 286 286 287 286 287 287 286 286 286 285 285 285 283 283 282 282 282
292 286 288 288 292 291 290 292 284 283 275 274 281 282 287 287 289 289 288 289 289 289 287 286 286 286 287 287 286 286 286 286 285 285 286 285 284 284 283 283 282 281 281 281
292 290 284 287 286 287 286 286 287 288 284 277 275 284 290 292 292 289 289 290 289 289 287 286 286 286 287 286 285 285 284 284 284 285 284 284 283 283 282 281 280 280 280 279
293 291 280 285 289 289 290 290 290 286 281 283 281 286 289 288 290 291 290 290 290 289 288 287 286 285 285 284 284 284 284 284 284 285 284 283 283 282 281 280 279 279 279 279
295 288 280 284 286 288 286 289 292 292 287 284 283 286 288 288 289 288 288 288 289 289 287 286 286 284 284 284 284 283 284 284 284 284 283 282 281 281 281 280 279 279 279 278
298 289 285 285 286 287 283 285 289 289 285 284 286 289 289 287 287 288 288 288 289 288 287 286 285 285 285 284 283 283 283 284 284 284 283 282 281 281 281 280 279 279 278 277
296 288 289 290 289 287 284 285 287 287 289 286 289 288 293 294 292 290 290 288 288 288 287 287 286 285 284 283 284 283 284 284 284 284 283 282 282 281 281 280 279 279 278 277
294 287 288 287 289 289 287 289 288 288 289 289 290 289 294 295 296 291 290 289 289 289 289 288 288 286 284 284 284 284 284 284 284 284 283 282 282 282 281 280 280 279 278 277
289 286 285 283 286 286 283 287 289 290 291 290 285 291 294 293 293 290 289 290 290 290 290 289 288 287 286 285 285 284 284 284 284 283 283 282 282 282 281 281 279 278 277 276
285 286 287 284 285 278 286 285 292 290 292 294 293 293 289 292 294 294 292 291 291 291 291 290 290 289 287 286 285 285 284 283 283 283 283 283 282 282 281 280 279 278 277 275
289 285 283 281 281 282 285 282 286 285 288 292 293 295 295 292 285 288 290 291 293 292 292 292 291 290 289 286 285 284 282 282 282 282 282 282 282 281 280 279 278 278 276 275
285 287 285 283 279 277 280 281 283 287 282 286 291 293 292 285 283 292 289 288 289 290 290 290 290 288 288 286 284 283 282 282 281 282 283 283 282 282 280 280 278 277 276 276
278 280 280 282 280 281 285 282 285 281 280 278 280 282 284 286 289 288 288 288 288 288 289 289 289 288 288 285 284 283 282 281 283 282 282 282 282 281 281 280 275 274 273 272
278 278 277 280 278 276 281 282 285 285 281 280 284 283 283 284 282 283 284 284 285 285 285 285 284 283 282 284 284 282 281 281 280 280 280 280 280 279 277 276 270 271 270 269
280 282 280 282 282 282 282 282 283 282 281 280 283 283 282 281 280 279 280 281 282 282 281 280 281 280 279 280 283 281 279 278 278 278 276 275 274 274 273 273 269 266 266 268
282 281 282 282 282 281 281 282 284 283 281 281 282 283 281 279 280 279 279 280 280 278 279 277 278 278 277 276 277 277 277 276 275 273 271 270 271 268 267 269 269 267 266 265
279 280 279 279 280 279 282 282 285 286 281 280 280 281 280 280 279 279 278 278 279 278 277 277 278 277 275 275 273 271 273 273 271 269 268 267 267 267 266 267 265 266 264 265
278 279 279 279 282 283 284 284 284 285 282 280 280 280 280 280 280 279 277 278 277 276 274 275 275 274 272 270 268 266 265 270 270 268 267 267 266 264 265 265 263 273 273 274
Wind_Speed
3 4 9 15 10 6 3 4 5 5 4 6 10 11 11 12 8 9 11 12 12 12 8 8 8 7 7 6 7 8 9 8 7 7 7 6 6 7 7 7 8 8 8 9
2 10 15 7 9 8 8 8 12 8 6 6 8 15 10 7 12 16 19 18 14 9 9 8 8 8 7 7 7 8 9 9 5 5 6 5 6 7 6 6 9 8 9 9
10 8 9 9 6 6 7 9 6 9 1 4 5 10 8 10 14 9 17 13 13 17 15 10 9 8 7 8 10 11 9 6 8 11 10 10 9 6 6 6 7 7 9 10
10 8 5 6 7 10 9 7 6 7 2 7 5 12 7 6 10 11 19 15 16 15 11 12 11 9 8 8 8 8 10 10 10 11 10 11 9 10 2 5 6 7 8 10
9 8 10 11 9 9 7 2 4 3 3 3 4 8 6 9 13 21 15 13 15 17 17 17 15 12 9 9 9 8 9 9 10 11 9 10 11 9 7 7 10 9 7 8
5 0 5 7 3 7 7 6 6 5 3 7 9 10 6 12 18 12 5 9 13 14 14 14 12 11 9 7 8 8 9 6 8 10 11 14 17 14 11 9 9 7 6 6
0 6 3 5 5 3 5 7 2 3 1 10 5 11 19 6 5 9 11 13 12 15 16 16 15 13 10 11 9 8 9 8 9 12 12 13 14 14 13 11 9 10 6 5
8 6 16 8 12 9 9 10 8 8 6 5 3 11 9 9 7 8 8 16 16 17 15 16 16 13 12 10 10 9 9 9 10 11 12 10 11 8 8 9 9 7 7 7
7 7 4 1 4 13 6 10 6 2 2 2 7 10 10 5 10 3 7 13 16 17 17 17 15 13 12 11 11 11 10 10 11 12 11 11 9 11 10 10 8 8 8 7
5 4 3 1 5 3 7 6 4 1 3 7 6 9 14 6 11 8 8 12 13 14 15 15 15 14 13 13 11 12 12 14 11 12 11 11 10 9 9 10 10 9 7 7
4 3 1 2 7 13 4 5 4 5 5 5 3 12 7 9 9 9 12 14 17 17 16 15 14 13 13 11 11 12 11 12 13 12 9 11 9 9 8 9 9 9 7 7
9 3 5 11 4 3 2 10 10 8 6 6 3 21 2 1 5 8 11 13 13 15 15 14 14 14 13 13 12 13 12 12 12 12 12 11 10 10 10 10 9 8 9 7
9 2 1 5 1 3 8 8 18 11 4 14 6 18 2 4 5 2 7 8 10 14 14 13 13 14 14 14 13 13 12 12 10 11 11 10 11 11 11 11 10 9 9 7
8 6 9 13 4 6 8 9 14 16 10 7 26 25 11 3 3 3 5 7 11 15 16 15 15 16 15 15 15 14 13 13 12 12 12 13 12 12 11 10 10 9 8 9
11 10 13 21 7 2 5 8 18 21 29 15 23 22 28 14 9 11 8 9 11 14 17 18 18 16 16 15 15 14 14 14 14 14 13 13 11 10 10 10 9 8 8 7
4 6 9 23 15 14 16 15 18 21 25 22 26 33 7 9 8 7 13 16 17 17 18 18 17 17 19 18 18 16 16 15 15 15 14 12 12 12 12 11 10 9 8 8
9 7 7 16 8 11 11 35 20 21 22 24 25 36 18 16 15 10 10 15 18 17 17 18 18 17 15 16 16 17 15 14 15 14 12 13 13 12 12 11 10 10 10 7
0 8 7 8 8 13 11 3 21 23 27 26 26 29 9 14 18 15 10 17 19 18 17 16 14 13 13 13 12 11 11 13 13 12 12 12 13 12 10 11 11 10 9 10
14 6 4 4 7 6 8 5 9 11 17 16 21 27 27 13 2 9 10 9 15 16 17 16 15 14 14 15 14 13 12 14 14 13 13 13 13 12 12 13 12 10 9 8
2 8 8 5 5 8 5 4 1 5 10 9 14 21 16 6 5 18 8 7 9 9 9 10 12 10 14 13 15 16 16 15 15 14 13 11 12 13 14 13 12 7 6 8
4 4 13 13 7 5 6 3 2 5 8 2 1 3 8 8 7 5 7 5 5 5 10 9 11 13 14 14 16 15 13 15 13 10 11 12 12 13 12 10 5 6 6 5
11 10 6 5 4 8 6 3 9 4 3 2 5 2 5 3 2 3 4 5 6 8 6 7 10 8 8 12 14 12 14 7 9 10 10 10 10 8 7 9 5 5 7 6
5 6 7 9 6 1 5 5 3 3 2 2 3 1 4 3 1 2 4 6 6 7 6 6 9 9 5 6 8 9 6 8 9 9 8 6 6 6 7 8 6 4 5 5
3 1 3 2 5 4 5 3 2 2 1 2 2 1 3 3 4 3 3 5 5 4 6 4 9 8 6 4 5 4 7 7 9 8 6 6 7 5 4 4 4 5 6 4
4 7 6 4 5 4 8 7 4 2 2 2 1 1 2 5 3 4 5 5 5 5 4 5 7 6 6 5 6 4 6 7 7 7 6 5 4 4 4 3 3 3 2 4
5 7 6 6 5 3 4 7 7 7 6 5 4 3 2 4 6 5 4 4 4 6 3 5 6 8 6 7 6 5 3 6 8 7 5 4 4 3 4 4 1 4 7 8
Wind_Direction
216 128 200 206 194 195 216 222 240 258 233 158 225 240 235 215 225 218 222 216 201 192 162 158 146 146 147 153 137 135 134 134 130 129 117 97 99 90 78 68 56 62 69 67
106 227 224 177 200 211 238 249 264 297 196 176 253 251 250 210 222 215 212 217 196 160 164 163 150 158 171 161 145 144 144 149 154 124 112 106 110 88 86 80 69 64 67 71
183 213 207 192 214 204 217 211 233 229 198 263 311 270 235 244 225 217 227 220 190 176 164 164 163 167 165 160 153 149 160 149 119 114 111 106 99 89 86 73 77 64 77 80
234 230 150 161 208 188 232 214 217 241 261 254 146 283 227 229 251 222 231 199 181 173 166 162 162 168 171 165 153 147 138 137 133 135 131 138 131 128 99 107 99 85 75 82
230 178 208 221 211 180 222 135 181 210 222 332 276 298 260 214 247 248 232 204 181 175 164 167 167 165 167 160 154 140 134 140 144 141 133 123 109 113 120 112 100 93 85 87
212 143 151 203 75 168 144 75 40 42 60 267 190 210 231 223 234 249 203 190 174 164 164 162 156 148 156 146 142 139 135 132 136 131 133 135 136 142 137 134 125 118 109 98
103 208 183 148 104 43 132 109 299 323 307 248 206 221 251 287 208 228 210 190 169 166 163 160 157 160 158 159 156 149 147 139 133 133 135 140 141 141 138 138 135 132 121 100
175 277 177 191 184 176 191 167 165 215 211 281 354 245 255 230 259 271 234 185 171 168 167 162 160 159 161 164 161 152 151 142 140 138 134 133 135 141 139 145 147 134 127 127
183 261 60 103 153 156 199 211 174 27 114 12 221 277 284 239 259 264 182 165 176 172 166 164 158 163 166 166 168 158 149 146 144 139 137 141 143 148 153 144 125 126 127 129
240 251 33 250 86 28 152 165 119 84 202 241 271 264 242 236 251 229 209 181 176 172 166 165 166 168 173 172 164 156 159 156 148 139 143 145 144 142 139 131 129 133 130 127
184 163 263 107 198 175 146 196 197 142 164 191 280 259 211 230 244 213 203 191 179 177 173 171 172 171 170 166 161 160 156 152 150 147 140 141 141 136 127 131 136 139 134 136
204 143 187 206 242 249 306 195 176 181 214 233 149 265 176 137 272 209 204 190 181 177 172 173 170 165 166 168 167 166 162 159 159 151 146 147 141 138 138 143 147 143 140 139
178 214 352 309 32 354 219 209 207 220 87 218 179 257 342 28 14 235 192 180 171 169 169 170 169 173 174 173 171 167 166 163 158 151 147 147 152 152 154 154 151 149 144 131
98 166 210 226 167 133 185 203 200 202 212 172 228 269 230 355 308 271 216 185 174 175 175 176 180 182 179 178 174 172 168 165 161 159 161 163 165 163 161 155 154 153 146 137
170 218 217 248 231 127 200 207 211 209 226 208 249 235 257 252 244 228 200 170 179 189 187 188 187 183 178 178 180 174 172 172 168 166 170 173 164 159 155 155 159 150 146 149
179 223 203 249 239 244 252 246 217 221 236 240 255 258 133 225 241 204 191 185 193 196 196 193 187 183 186 184 182 177 177 176 171 173 177 169 168 166 167 166 161 153 154 157
180 176 193 245 180 212 239 235 232 227 226 223 231 244 246 250 233 222 202 192 194 203 199 192 191 189 188 188 182 183 178 170 177 174 173 173 173 173 174 166 162 165 167 157
205 210 219 244 148 218 238 249 213 215 233 229 243 257 218 234 238 240 206 194 199 193 186 188 186 184 175 170 177 170 166 170 174 179 175 174 173 174 169 169 177 171 169 178
199 174 223 237 232 326 277 208 159 169 249 225 232 247 251 252 355 270 216 200 198 186 181 177 172 170 165 169 165 158 163 173 177 182 183 178 173 172 174 186 184 182 171 177
128 226 212 180 222 216 254 255 195 103 279 229 210 235 250 124 216 256 181 163 151 153 150 154 152 131 152 162 156 168 180 180 188 184 180 170 173 179 188 185 185 174 182 192
159 200 220 231 237 270 240 204 240 113 242 288 179 239 157 199 244 298 137 105 115 136 153 141 143 158 169 160 166 178 174 190 183 159 161 174 181 184 186 179 162 160 170 158
169 171 189 206 232 249 164 94 164 202 324 265 314 295 192 171 347 46 80 103 123 129 118 130 130 138 139 153 158 165 185 153 142 146 156 170 177 173 162 166 146 155 161 175
203 182 175 196 210 229 205 184 187 166 172 347 304 300 166 147 176 115 114 127 128 120 114 92 113 109 89 112 146 158 155 138 138 145 159 154 144 152 153 157 159 133 155 180
239 100 195 145 203 238 260 283 278 3 94 8 338 288 156 137 144 108 102 119 103 87 112 102 115 118 115 97 95 117 142 138 140 141 140 134 147 134 123 116 149 154 170 173
181 150 159 270 250 299 249 217 195 180 162 125 17 57 160 150 161 153 138 124 118 117 94 113 127 125 122 111 93 73 120 127 123 118 122 122 118 132 125 94 144 138 152 165
185 171 173 219 203 169 234 208 195 172 170 182 169 97 95 153 154 124 106 115 130 131 104 97 93 111 116 101 89 72 76 121 127 121 125 126 122 116 131 137 105 221 202 220